TimeCDT,TemperatureF,Dew PointF,Humidity,Sea Level PressureIn,VisibilityMPH,Wind Direction,Wind SpeedMPH,Gust SpeedMPH,PrecipitationIn,Events,Conditions,WindDirDegrees,DateUTC
12:40 AM,80.6,75.2,84,29.98,10.0,South,16.1,24.2,N/A,,Mostly Cloudy,180,2013-07-05 05:40:00
12:45 AM,80.6,75.2,84,29.98,10.0,South,15.0,26.5,N/A,,Mostly Cloudy,180,2013-07-05 05:45:00
12:58 AM,81.0,75.2,83,29.98,10.0,South,17.3,26.5,N/A,Thunderstorm,Mostly Cloudy,190,2013-07-05 05:58:00
1:13 AM,80.6,75.2,84,29.97,10.0,South,18.4,-,N/A,Thunderstorm,Thunderstorm,190,2013-07-05 06:13:00
1:28 AM,80.6,75.2,84,29.98,10.0,South,16.1,-,N/A,Thunderstorm,Partly Cloudy,190,2013-07-05 06:28:00
1:58 AM,80.8,74.3,81,29.97,10.0,South,11.5,-,N/A,Thunderstorm,Clear,190,2013-07-05 06:58:00
2:48 AM,80.6,75.2,84,29.97,10.0,South,10.4,-,N/A,,Mostly Cloudy,190,2013-07-05 07:48:00
2:53 AM,80.6,75.2,84,29.97,10.0,SSW,8.1,-,N/A,,Scattered Clouds,200,2013-07-05 07:53:00
2:58 AM,80.8,74.8,82,29.97,10.0,NW,5.8,-,N/A,,Scattered Clouds,320,2013-07-05 07:58:00
3:03 AM,78.8,75.2,89,29.98,10.0,NNW,3.5,-,N/A,,Mostly Cloudy,330,2013-07-05 08:03:00
3:58 AM,76.6,73.8,91,29.98,10.0,NE,4.6,-,N/A,,Overcast,50,2013-07-05 08:58:00
4:23 AM,77.0,73.4,89,29.98,10.0,North,5.8,-,N/A,,Overcast,360,2013-07-05 09:23:00
4:28 AM,75.2,73.4,94,29.98,10.0,NNE,6.9,-,N/A,,Overcast,30,2013-07-05 09:28:00
4:43 AM,75.2,73.4,94,29.98,10.0,NE,6.9,-,N/A,,Overcast,50,2013-07-05 09:43:00
4:53 AM,75.2,73.4,94,29.98,10.0,ENE,6.9,-,N/A,,Mostly Cloudy,60,2013-07-05 09:53:00
4:58 AM,75.7,73.8,94,29.98,10.0,NE,5.8,-,N/A,,Mostly Cloudy,50,2013-07-05 09:58:00
5:03 AM,77.0,73.4,89,29.97,10.0,NE,6.9,-,N/A,,Mostly Cloudy,50,2013-07-05 10:03:00
5:04 AM,77.0,73.4,89,29.97,10.0,ENE,8.1,-,N/A,Thunderstorm,Thunderstorm,60,2013-07-05 10:04:00
5:09 AM,77.0,73.4,89,29.98,7.0,East,5.8,-,N/A,Rain-Thunderstorm,Light Thunderstorms and Rain,80,2013-07-05 10:09:00
5:14 AM,77.0,73.4,89,29.98,6.0,NW,4.6,-,N/A,Rain-Thunderstorm,Light Thunderstorms and Rain,310,2013-07-05 10:14:00
5:19 AM,77.0,73.4,89,29.98,5.0,West,9.2,-,N/A,Rain-Thunderstorm,Light Thunderstorms and Rain,270,2013-07-05 10:19:00
5:24 AM,77.0,73.4,89,29.99,2.5,SW,11.5,-,N/A,Rain-Thunderstorm,Heavy Thunderstorms and Rain,230,2013-07-05 10:24:00
5:29 AM,75.2,71.6,89,29.99,1.5,SW,3.5,-,N/A,Rain-Thunderstorm,Heavy Thunderstorms and Rain,220,2013-07-05 10:29:00
5:34 AM,73.4,69.8,88,29.98,1.2,West,6.9,-,N/A,Rain-Thunderstorm,Heavy Thunderstorms and Rain,260,2013-07-05 10:34:00
5:49 AM,73.4,69.8,88,29.99,1.8,NE,5.8,-,N/A,Rain-Thunderstorm,Thunderstorms and Rain,50,2013-07-05 10:49:00
5:54 AM,73.4,69.8,88,29.99,1.8,Variable,2.3,-,N/A,Rain-Thunderstorm,Heavy Thunderstorms and Rain,0,2013-07-05 10:54:00
5:58 AM,73.4,69.8,88,29.99,1.0,Variable,4.6,-,0.73,Rain-Thunderstorm,Thunderstorms and Rain,0,2013-07-05 10:58:00
6:03 AM,73.4,69.8,88,29.99,1.0,SSW,10.4,-,N/A,Rain-Thunderstorm,Heavy Thunderstorms and Rain,210,2013-07-05 11:03:00
6:08 AM,73.4,69.8,88,29.99,1.2,South,12.7,-,N/A,Rain-Thunderstorm,Heavy Thunderstorms and Rain,170,2013-07-05 11:08:00
6:13 AM,73.4,69.8,88,29.98,1.8,South,10.4,-,N/A,Rain-Thunderstorm,Heavy Thunderstorms and Rain,170,2013-07-05 11:13:00
6:18 AM,73.4,69.8,88,29.98,2.0,South,8.1,-,N/A,Rain-Thunderstorm,Thunderstorms and Rain,170,2013-07-05 11:18:00
6:23 AM,73.4,69.8,88,29.99,2.5,SSE,10.4,-,N/A,Rain-Thunderstorm,Light Thunderstorms and Rain,150,2013-07-05 11:23:00
6:28 AM,73.4,69.8,88,29.98,5.0,SSE,8.1,-,N/A,Rain-Thunderstorm,Light Thunderstorms and Rain,160,2013-07-05 11:28:00
6:32 AM,73.4,69.8,88,29.98,10.0,SSE,6.9,-,N/A,Thunderstorm,Scattered Clouds,160,2013-07-05 11:32:00
6:58 AM,73.8,70.9,91,29.99,10.0,ESE,3.5,-,0.22,,Clear,120,2013-07-05 11:58:00
7:58 AM,75.7,73.4,92,30.01,10.0,ENE,4.6,-,N/A,,Clear,70,2013-07-05 12:58:00
8:58 AM,76.5,73.9,92,30.02,10.0,NE,1.2,-,N/A,,Partly Cloudy,50,2013-07-05 13:58:00
9:58 AM,76.8,74.7,93,30.04,10.0,Calm,Calm,-,N/A,,Mostly Cloudy,0,2013-07-05 14:58:00
10:00 AM,77.0,75.2,94,30.04,10.0,Calm,Calm,-,N/A,Rain,Light Rain,0,2013-07-05 15:00:00
10:58 AM,78.1,75.9,93,30.06,10.0,ENE,1.2,-,0.04,Rain-Thunderstorm,Light Rain,70,2013-07-05 15:58:00
11:52 AM,77.0,73.4,89,30.06,4.0,South,9.2,-,N/A,Rain-Thunderstorm,Light Thunderstorms and Rain,170,2013-07-05 16:52:00
11:58 AM,77.2,74.1,90,30.07,4.0,South,13.8,-,0.12,Rain-Thunderstorm,Light Thunderstorms and Rain,170,2013-07-05 16:58:00
12:21 PM,75.2,73.4,94,30.07,5.0,South,17.3,-,N/A,Rain-Thunderstorm,Light Rain,180,2013-07-05 17:21:00
12:25 PM,75.2,73.4,94,30.07,5.0,South,16.1,-,N/A,Rain-Thunderstorm,Light Thunderstorms and Rain,190,2013-07-05 17:25:00
12:40 PM,75.2,71.6,89,30.08,4.0,South,10.4,-,N/A,Rain-Thunderstorm,Light Rain,190,2013-07-05 17:40:00
12:55 PM,75.2,71.6,89,30.08,6.0,South,9.2,-,N/A,Rain,Light Rain,190,2013-07-05 17:55:00
12:58 PM,75.0,71.8,90,30.09,6.0,South,10.4,-,0.15,Rain,Light Rain,190,2013-07-05 17:58:00
1:05 PM,75.2,69.8,83,30.08,9.0,South,11.5,-,N/A,Rain-Thunderstorm,Light Thunderstorms and Rain,190,2013-07-05 18:05:00
1:20 PM,75.2,69.8,83,30.08,10.0,South,10.4,-,N/A,Rain,Light Rain,180,2013-07-05 18:20:00
1:58 PM,74.8,70.3,86,30.09,10.0,SSE,10.4,-,0.06,Rain,Light Rain,160,2013-07-05 18:58:00
2:51 PM,75.2,71.6,89,30.03,10.0,South,12.7,-,N/A,,Clear,180,2013-07-05 19:51:00
2:58 PM,75.6,71.4,87,30.04,10.0,South,13.8,-,0.03,,Clear,180,2013-07-05 19:58:00
3:58 PM,75.7,68.4,78,29.98,10.0,SSE,19.6,24.2,0.01,,Clear,150,2013-07-05 20:58:00
4:58 PM,77.4,67.8,72,29.99,10.0,SE,11.5,-,N/A,,Clear,140,2013-07-05 21:58:00
5:51 PM,77.0,69.8,78,29.99,10.0,SE,10.4,-,N/A,Rain,Light Rain,130,2013-07-05 22:51:00
5:58 PM,77.7,69.6,76,30.00,10.0,ESE,10.4,17.3,0.00,Rain,Light Rain,120,2013-07-05 22:58:00
6:15 PM,75.2,69.8,83,30.01,10.0,NW,6.9,-,N/A,,Clear,310,2013-07-05 23:15:00
6:24 PM,73.4,69.8,88,30.01,10.0,NW,5.8,-,N/A,Rain,Light Rain,310,2013-07-05 23:24:00
6:41 PM,73.4,71.6,94,30.02,10.0,NNW,3.5,-,N/A,,Partly Cloudy,330,2013-07-05 23:41:00
6:58 PM,74.8,70.9,87,30.02,10.0,NE,3.5,-,0.01,,Scattered Clouds,40,2013-07-05 23:58:00
7:28 PM,77.0,69.8,78,30.01,10.0,SE,10.4,-,N/A,,Mostly Cloudy,130,2013-07-06 00:28:00
7:38 PM,77.0,69.8,78,30.01,10.0,SE,12.7,18.4,N/A,,Mostly Cloudy,130,2013-07-06 00:38:00
7:58 PM,76.1,70.0,81,30.02,10.0,ESE,10.4,-,N/A,,Mostly Cloudy,110,2013-07-06 00:58:00
8:13 PM,75.2,69.8,83,30.01,10.0,ESE,9.2,-,N/A,,Mostly Cloudy,120,2013-07-06 01:13:00
8:32 PM,75.2,71.6,89,29.99,10.0,SE,13.8,-,N/A,Rain,Light Rain,130,2013-07-06 01:32:00
8:37 PM,75.2,71.6,89,29.98,10.0,ESE,13.8,-,N/A,Rain,Light Rain,120,2013-07-06 01:37:00
8:51 PM,75.2,71.6,89,29.97,10.0,East,9.2,-,N/A,,Partly Cloudy,100,2013-07-06 01:51:00
8:58 PM,75.4,71.6,88,29.98,10.0,East,8.1,-,0.00,,Clear,90,2013-07-06 01:58:00
9:58 PM,74.5,71.4,90,30.01,10.0,NNW,2.3,-,N/A,,Scattered Clouds,330,2013-07-06 02:58:00
10:58 PM,74.3,72.0,92,30.02,10.0,East,4.6,-,N/A,,Overcast,90,2013-07-06 03:58:00
11:58 PM,74.3,71.2,90,30.03,10.0,North,6.9,-,N/A,,Overcast,10,2013-07-06 04:58:00